| time (UTC) | temp C | wind direction | speed KPH | gust KPH | rain 1hr cm | rain 24hr cm | rain mn cm | humidity % | barometer mb |
| 20260904044059 | 27 | 16 | 0.0 | 0.0 | 0.00 | 0.00 | 0.00 | 40 | 1016.9 |
| 20260904043559 | 27 | 16 | 0.0 | 1.6 | 0.00 | 0.00 | 0.00 | 39 | 1016.9 |
| 20260904043104 | 27 | 16 | 0.0 | 1.6 | 0.00 | 0.00 | 0.00 | 39 | 1016.9 |
| 20260904042558 | 27 | 16 | 0.0 | 0.0 | 0.00 | 0.00 | 0.00 | 40 | 1016.9 |
| 20260904042100 | 27 | 16 | 0.0 | 1.6 | 0.00 | 0.00 | 0.00 | 39 | 1016.9 |
| 20260904041605 | 27 | 16 | 0.0 | 1.6 | 0.00 | 0.00 | 0.00 | 39 | 1017.0 |
| 20260904041059 | 27 | 16 | 0.0 | 1.6 | 0.00 | 0.00 | 0.00 | 39 | 1016.9 |
| 20260904040558 | 27 | 16 | 0.0 | 1.6 | 0.00 | 0.00 | 0.00 | 40 | 1016.9 |
| 20260904040058 | 27 | 16 | 0.0 | 0.0 | 0.00 | 0.00 | 0.00 | 39 | 1016.8 |
| 20260904035559 | 28 | 16 | 0.0 | 0.0 | 0.00 | 0.00 | 0.00 | 39 | 1016.8 |
| 20260904035057 | 28 | 16 | 0.0 | 1.6 | 0.00 | 0.00 | 0.00 | 38 | 1016.8 |
| 20260904034557 | 28 | 16 | 0.0 | 3.2 | 0.00 | 0.00 | 0.00 | 38 | 1016.7 |
| 20260904034101 | 28 | 16 | 0.0 | 3.2 | 0.00 | 0.00 | 0.00 | 37 | 1016.7 |
| 20260904033559 | 28 | 16 | 0.0 | 1.6 | 0.00 | 0.00 | 0.00 | 37 | 1016.6 |
| 20260904033055 | 29 | 16 | 0.0 | 1.6 | 0.00 | 0.00 | 0.00 | 36 | 1016.6 |
| 20260904032557 | 29 | 16 | 0.0 | 3.2 | 0.00 | 0.00 | 0.00 | 35 | 1016.6 |
| 20260904032057 | 29 | 16 | 0.0 | 3.2 | 0.00 | 0.00 | 0.00 | 35 | 1016.5 |
| 20260904031558 | 29 | 16 | 0.0 | 4.8 | 0.00 | 0.00 | 0.00 | 36 | 1016.5 |
| 20260904031053 | 29 | 360 | 3.2 | 6.4 | 0.00 | 0.00 | 0.00 | 36 | 1016.5 |
| 20260904030553 | 29 | 357 | 1.6 | 4.8 | 0.00 | 0.00 | 0.00 | 36 | 1016.4 |
| 20260904030053 | 29 | 319 | 1.6 | 6.4 | 0.00 | 0.00 | 0.00 | 36 | 1016.3 |
| 20260904025553 | 30 | 308 | 0.0 | 4.8 | 0.00 | 0.00 | 0.00 | 35 | 1016.1 |
| 20260904025053 | 30 | 308 | 0.0 | 6.4 | 0.00 | 0.00 | 0.00 | 35 | 1016.1 |
| 20260904024557 | 30 | 276 | 1.6 | 6.4 | 0.00 | 0.00 | 0.00 | 35 | 1016.0 |
| 20260904024055 | 30 | 290 | 1.6 | 8.0 | 0.00 | 0.00 | 0.00 | 34 | 1016.0 |
| 20260904023552 | 30 | 305 | 3.2 | 9.7 | 0.00 | 0.00 | 0.00 | 34 | 1015.8 |
| 20260904023054 | 30 | 263 | 3.2 | 11.3 | 0.00 | 0.00 | 0.00 | 34 | 1015.8 |
| 20260904022551 | 30 | 254 | 4.8 | 11.3 | 0.00 | 0.00 | 0.00 | 33 | 1015.8 |
| 20260904022052 | 30 | 266 | 4.8 | 11.3 | 0.00 | 0.00 | 0.00 | 33 | 1015.7 |
| 20260904021552 | 30 | 276 | 4.8 | 11.3 | 0.00 | 0.00 | 0.00 | 33 | 1015.7 |
| 20260904021051 | 31 | 244 | 6.4 | 14.5 | 0.00 | 0.00 | 0.00 | 32 | 1015.6 |
| 20260904020551 | 31 | 252 | 6.4 | 14.5 | 0.00 | 0.00 | 0.00 | 32 | 1015.5 |
| 20260904020054 | 31 | 276 | 4.8 | 12.9 | 0.00 | 0.00 | 0.00 | 32 | 1015.5 |
| 20260904015552 | 31 | 244 | 6.4 | 12.9 | 0.00 | 0.00 | 0.00 | 31 | 1015.4 |
| 20260904015051 | 31 | 268 | 4.8 | 11.3 | 0.00 | 0.00 | 0.00 | 31 | 1015.3 |
| 20260904014615 | 31 | 290 | 4.8 | 11.3 | 0.00 | 0.00 | 0.00 | 31 | 1015.4 |
| 20260904014049 | 31 | 311 | 3.2 | 12.9 | 0.00 | 0.00 | 0.00 | 31 | 1015.3 |
| 20260904013550 | 31 | 250 | 8.0 | 16.1 | 0.00 | 0.00 | 0.00 | 31 | 1015.3 |
| 20260904013107 | 31 | 266 | 9.7 | 16.1 | 0.00 | 0.00 | 0.00 | 31 | 1015.4 |
| 20260904012550 | 31 | 234 | 6.4 | 9.7 | 0.00 | 0.00 | 0.00 | 31 | 1015.3 |
| 20260904012051 | 31 | 261 | 6.4 | 14.5 | 0.00 | 0.00 | 0.00 | 31 | 1015.3 |
| 20260904011549 | 32 | 286 | 8.0 | 14.5 | 0.00 | 0.00 | 0.00 | 30 | 1015.3 |
| 20260904011049 | 32 | 233 | 6.4 | 16.1 | 0.00 | 0.00 | 0.00 | 30 | 1015.3 |
| 20260904010549 | 32 | 242 | 8.0 | 14.5 | 0.00 | 0.00 | 0.00 | 30 | 1015.3 |
| 20260904010057 | 32 | 248 | 6.4 | 12.9 | 0.00 | 0.00 | 0.00 | 29 | 1015.2 |
| 20260904005549 | 32 | 258 | 6.4 | 14.5 | 0.00 | 0.00 | 0.00 | 30 | 1015.2 |
| 20260904005049 | 32 | 240 | 6.4 | 14.5 | 0.00 | 0.00 | 0.00 | 29 | 1015.2 |
| 20260904004548 | 32 | 263 | 6.4 | 11.3 | 0.00 | 0.00 | 0.00 | 29 | 1015.1 |
| 20260904004049 | 32 | 221 | 4.8 | 12.9 | 0.00 | 0.00 | 0.00 | 28 | 1015.1 |
| 20260904003548 | 32 | 227 | 6.4 | 12.9 | 0.00 | 0.00 | 0.00 | 28 | 1015.2 |
| 20260904003052 | 33 | 257 | 8.0 | 11.3 | 0.00 | 0.00 | 0.00 | 28 | 1015.2 |
| 20260904002548 | 33 | 257 | 3.2 | 16.1 | 0.00 | 0.00 | 0.00 | 27 | 1015.2 |
| 20260904002049 | 33 | 257 | 6.4 | 16.1 | 0.00 | 0.00 | 0.00 | 28 | 1015.2 |
| 20260904001548 | 33 | 222 | 9.7 | 17.7 | 0.00 | 0.00 | 0.00 | 27 | 1015.2 |
| 20260904001048 | 33 | 238 | 8.0 | 17.7 | 0.00 | 0.00 | 0.00 | 27 | 1015.1 |
| 20260904000548 | 33 | 223 | 8.0 | 14.5 | 0.00 | 0.00 | 0.00 | 27 | 1015.1 |
| 20260904000050 | 33 | 266 | 4.8 | 16.1 | 0.00 | 0.00 | 0.00 | 27 | 1015.0 |
| 20260903235548 | 33 | 238 | 8.0 | 16.1 | 0.00 | 0.00 | 0.00 | 28 | 1015.1 |
| 20260903235047 | 33 | 205 | 9.7 | 16.1 | 0.00 | 0.00 | 0.00 | 27 | 1015.0 |
| 20260903234548 | 34 | 223 | 9.7 | 14.5 | 0.00 | 0.00 | 0.00 | 27 | 1015.0 |
| 20260903234046 | 34 | 246 | 6.4 | 11.3 | 0.00 | 0.00 | 0.00 | 28 | 1015.0 |
| 20260903233547 | 33 | 222 | 4.8 | 11.3 | 0.00 | 0.00 | 0.00 | 27 | 1015.0 |
| 20260903233048 | 33 | 225 | 4.8 | 16.1 | 0.00 | 0.00 | 0.00 | 28 | 1015.1 |
| 20260903232545 | 33 | 252 | 1.6 | 16.1 | 0.00 | 0.00 | 0.00 | 28 | 1015.1 |
| 20260903232045 | 33 | 286 | 6.4 | 12.9 | 0.00 | 0.00 | 0.00 | 29 | 1015.1 |
| 20260903231546 | 33 | 240 | 1.6 | 12.9 | 0.00 | 0.00 | 0.00 | 30 | 1015.2 |
| 20260903231043 | 33 | 238 | 6.4 | 12.9 | 0.00 | 0.00 | 0.00 | 29 | 1015.2 |
| 20260903230543 | 33 | 292 | 6.4 | 16.1 | 0.00 | 0.00 | 0.00 | 30 | 1015.2 |
| 20260903230044 | 32 | 339 | 9.7 | 16.1 | 0.00 | 0.00 | 0.00 | 31 | 1015.2 |
| 20260903225546 | 32 | 244 | 9.7 | 17.7 | 0.00 | 0.00 | 0.00 | 31 | 1015.3 |
| 20260903225043 | 32 | 264 | 8.0 | 17.7 | 0.00 | 0.00 | 0.00 | 31 | 1015.3 |
| 20260903224542 | 32 | 256 | 8.0 | 17.7 | 0.00 | 0.00 | 0.00 | 31 | 1015.3 |
| 20260903224042 | 32 | 244 | 8.0 | 22.5 | 0.00 | 0.00 | 0.00 | 31 | 1015.4 |
| 20260903223542 | 32 | 248 | 14.5 | 22.5 | 0.00 | 0.00 | 0.00 | 30 | 1015.4 |
| 20260903223048 | 33 | 216 | 12.9 | 17.7 | 0.00 | 0.00 | 0.00 | 30 | 1015.4 |
| 20260903222544 | 33 | 271 | 6.4 | 17.7 | 0.00 | 0.00 | 0.00 | 29 | 1015.3 |
| 20260903222041 | 33 | 272 | 9.7 | 20.9 | 0.00 | 0.00 | 0.00 | 28 | 1015.4 |
| 20260903221542 | 34 | 281 | 9.7 | 20.9 | 0.00 | 0.00 | 0.00 | 28 | 1015.4 |
| 20260903221042 | 35 | 242 | 8.0 | 16.1 | 0.00 | 0.00 | 0.00 | 26 | 1015.4 |
| 20260903220540 | 35 | 247 | 8.0 | 17.7 | 0.00 | 0.00 | 0.00 | 26 | 1015.5 |
| 20260903220040 | 35 | 309 | 9.7 | 17.7 | 0.00 | 0.00 | 0.00 | 26 | 1015.5 |
| 20260903215545 | 35 | 340 | 4.8 | 11.3 | 0.00 | 0.00 | 0.00 | 26 | 1015.5 |
| 20260903215039 | 35 | 255 | 3.2 | 11.3 | 0.00 | 0.00 | 0.00 | 27 | 1015.5 |
| 20260903214542 | 35 | 115 | 3.2 | 11.3 | 0.00 | 0.00 | 0.00 | 27 | 1015.6 |
| 20260903214038 | 34 | 266 | 3.2 | 17.7 | 0.00 | 0.00 | 0.00 | 28 | 1015.6 |
| 20260903213538 | 34 | 303 | 8.0 | 17.7 | 0.00 | 0.00 | 0.00 | 28 | 1015.7 |
| 20260903213043 | 35 | 265 | 9.7 | 17.7 | 0.00 | 0.00 | 0.00 | 27 | 1015.7 |
| 20260903212536 | 35 | 223 | 3.2 | 16.1 | 0.00 | 0.00 | 0.00 | 27 | 1015.9 |
| 20260903212036 | 35 | 229 | 11.3 | 17.7 | 0.00 | 0.00 | 0.00 | 28 | 1016.0 |
| 20260903211546 | 35 | 309 | 6.4 | 19.3 | 0.00 | 0.00 | 0.00 | 27 | 1015.9 |
| 20260903211036 | 35 | 315 | 11.3 | 19.3 | 0.00 | 0.00 | 0.00 | 27 | 1015.9 |
| 20260903210535 | 35 | 257 | 6.4 | 16.1 | 0.00 | 0.00 | 0.00 | 28 | 1016.1 |
| 20260903210034 | 35 | 232 | 8.0 | 16.1 | 0.00 | 0.00 | 0.00 | 28 | 1016.2 |
| 20260903205537 | 35 | 267 | 9.7 | 20.9 | 0.00 | 0.00 | 0.00 | 27 | 1016.3 |
| 20260903205031 | 35 | 331 | 8.0 | 20.9 | 0.00 | 0.00 | 0.00 | 27 | 1016.4 |
| 20260903204530 | 35 | 310 | 8.0 | 14.5 | 0.00 | 0.00 | 0.00 | 26 | 1016.4 |
| 20260903204034 | 34 | 232 | 6.4 | 14.5 | 0.00 | 0.00 | 0.00 | 28 | 1016.5 |
| 20260903203528 | 35 | 281 | 8.0 | 14.5 | 0.00 | 0.00 | 0.00 | 27 | 1016.5 |
| 20260903203032 | 35 | 178 | 8.0 | 14.5 | 0.00 | 0.00 | 0.00 | 27 | 1016.6 |
| 20260903202528 | 33 | 303 | 4.8 | 14.5 | 0.00 | 0.00 | 0.00 | 28 | 1016.6 |
| 20260903202028 | 33 | 248 | 9.7 | 14.5 | 0.00 | 0.00 | 0.00 | 29 | 1016.8 |
| 20260903201528 | 33 | 203 | 0.0 | 14.5 | 0.00 | 0.00 | 0.00 | 27 | 1016.8 |
| 20260903201028 | 33 | 350 | 6.4 | 14.5 | 0.00 | 0.00 | 0.00 | 28 | 1016.8 |
| 20260903200526 | 33 | 254 | 9.7 | 14.5 | 0.00 | 0.00 | 0.00 | 28 | 1016.9 |
| 20260903200026 | 34 | 267 | 4.8 | 14.5 | 0.00 | 0.00 | 0.00 | 28 | 1017.0 |
| 20260903195524 | 33 | 72 | 1.6 | 14.5 | 0.00 | 0.00 | 0.00 | 28 | 1017.0 |
| 20260903195028 | 34 | 199 | 3.2 | 11.3 | 0.00 | 0.00 | 0.00 | 26 | 1017.1 |
| 20260903194523 | 35 | 48 | 0.0 | 8.0 | 0.00 | 0.00 | 0.00 | 28 | 1017.2 |
| 20260903194021 | 33 | 286 | 1.6 | 8.0 | 0.00 | 0.00 | 0.00 | 27 | 1017.3 |
| 20260903193521 | 33 | 250 | 1.6 | 11.3 | 0.00 | 0.00 | 0.00 | 26 | 1017.4 |
| 20260903193020 | 32 | 227 | 6.4 | 11.3 | 0.00 | 0.00 | 0.00 | 29 | 1017.5 |
| 20260903192520 | 32 | 281 | 3.2 | 12.9 | 0.00 | 0.00 | 0.00 | 31 | 1017.5 |
| 20260903192020 | 32 | 194 | 6.4 | 12.9 | 0.00 | 0.00 | 0.00 | 31 | 1017.6 |
| 20260903191526 | 32 | 157 | 6.4 | 12.9 | 0.00 | 0.00 | 0.00 | 31 | 1017.6 |
| 20260903191019 | 32 | 209 | 4.8 | 12.9 | 0.00 | 0.00 | 0.00 | 33 | 1017.6 |
| 20260903190519 | 32 | 339 | 3.2 | 12.9 | 0.00 | 0.00 | 0.00 | 31 | 1017.7 |
| 20260903190020 | 32 | 214 | 6.4 | 16.1 | 0.00 | 0.00 | 0.00 | 31 | 1017.8 |
| 20260903185519 | 33 | 276 | 8.0 | 16.1 | 0.00 | 0.00 | 0.00 | 30 | 1017.9 |
| 20260903185018 | 33 | 140 | 3.2 | 11.3 | 0.00 | 0.00 | 0.00 | 31 | 1018.0 |
| 20260903184516 | 32 | 252 | 4.8 | 12.9 | 0.00 | 0.00 | 0.00 | 30 | 1018.1 |
| 20260903184015 | 32 | 204 | 6.4 | 12.9 | 0.00 | 0.00 | 0.00 | 31 | 1018.2 |
| 20260903183515 | 32 | 145 | 1.6 | 11.3 | 0.00 | 0.00 | 0.00 | 30 | 1018.2 |
| 20260903183014 | 32 | 202 | 3.2 | 11.3 | 0.00 | 0.00 | 0.00 | 32 | 1018.4 |
| 20260903182512 | 31 | 244 | 6.4 | 11.3 | 0.00 | 0.00 | 0.00 | 34 | 1018.5 |
| 20260903182012 | 31 | 228 | 1.6 | 12.9 | 0.00 | 0.00 | 0.00 | 35 | 1018.5 |
| 20260903181512 | 31 | 207 | 6.4 | 12.9 | 0.00 | 0.00 | 0.00 | 35 | 1018.6 |
| 20260903181015 | 31 | 169 | 0.0 | 8.0 | 0.00 | 0.00 | 0.00 | 35 | 1018.7 |
| 20260903180512 | 31 | 169 | 1.6 | 8.0 | 0.00 | 0.00 | 0.00 | 34 | 1018.7 |
| 20260903180016 | 31 | 132 | 1.6 | 8.0 | 0.00 | 0.00 | 0.00 | 33 | 1018.8 |
| 20260903175511 | 31 | 165 | 3.2 | 12.9 | 0.00 | 0.00 | 0.00 | 34 | 1018.8 |
| 20260903175011 | 31 | 220 | 4.8 | 12.9 | 0.00 | 0.00 | 0.00 | 35 | 1018.9 |
| 20260903174511 | 31 | 118 | 3.2 | 11.3 | 0.00 | 0.00 | 0.00 | 34 | 1019.0 |
| 20260903174009 | 31 | 153 | 3.2 | 9.7 | 0.00 | 0.00 | 0.00 | 35 | 1019.0 |
| 20260903173513 | 30 | 146 | 0.0 | 8.0 | 0.00 | 0.00 | 0.00 | 35 | 1019.0 |
| 20260903173009 | 31 | 187 | 3.2 | 8.0 | 0.00 | 0.00 | 0.00 | 35 | 1019.0 |
| 20260903172509 | 30 | 303 | 0.0 | 3.2 | 0.00 | 0.00 | 0.00 | 36 | 1019.0 |
| 20260903172007 | 30 | 83 | 0.0 | 3.2 | 0.00 | 0.00 | 0.00 | 38 | 1019.1 |
| 20260903171506 | 30 | 5 | 0.0 | 9.7 | 0.00 | 0.00 | 0.00 | 38 | 1019.1 |
| 20260903171004 | 30 | 296 | 6.4 | 9.7 | 0.00 | 0.00 | 0.00 | 38 | 1019.1 |
| 20260903170503 | 30 | 281 | 0.0 | 8.0 | 0.00 | 0.00 | 0.00 | 39 | 1019.1 |
| 20260903170003 | 29 | 348 | 3.2 | 8.0 | 0.00 | 0.00 | 0.00 | 39 | 1019.1 |
| 20260903165501 | 29 | 234 | 0.0 | 8.0 | 0.00 | 0.00 | 0.00 | 41 | 1019.1 |
| 20260903165001 | 29 | 234 | 4.8 | 9.7 | 0.00 | 0.00 | 0.00 | 43 | 1019.1 |
| 20260903164608 | 28 | 184 | 1.6 | 9.7 | 0.00 | 0.00 | 0.00 | 44 | 1019.2 |
| 20260903164059 | 28 | 175 | 0.0 | 3.2 | 0.00 | 0.00 | 0.00 | 45 | 1019.2 |
| 20260903163559 | 27 | 175 | 0.0 | 6.4 | 0.00 | 0.00 | 0.00 | 46 | 1019.3 |
| 20260903163058 | 27 | 175 | 3.2 | 8.0 | 0.00 | 0.00 | 0.00 | 47 | 1019.2 |
| 20260903162559 | 27 | 163 | 3.2 | 8.0 | 0.00 | 0.00 | 0.00 | 47 | 1019.2 |
| 20260903162057 | 27 | 153 | 0.0 | 9.7 | 0.00 | 0.00 | 0.00 | 47 | 1019.2 |
| 20260903161558 | 27 | 134 | 3.2 | 9.7 | 0.00 | 0.00 | 0.00 | 46 | 1019.2 |
| 20260903161059 | 27 | 128 | 0.0 | 9.7 | 0.00 | 0.00 | 0.00 | 47 | 1019.2 |
| 20260903160557 | 27 | 132 | 0.0 | 9.7 | 0.00 | 0.00 | 0.00 | 47 | 1019.2 |
| 20260903160056 | 27 | 173 | 0.0 | 8.0 | 0.00 | 0.00 | 0.00 | 48 | 1019.2 |
| 20260903155558 | 26 | 188 | 1.6 | 9.7 | 0.00 | 0.00 | 0.00 | 49 | 1019.1 |
| 20260903155056 | 26 | 209 | 3.2 | 9.7 | 0.00 | 0.00 | 0.00 | 49 | 1019.2 |
| 20260903154554 | 26 | 129 | 3.2 | 8.0 | 0.00 | 0.00 | 0.00 | 50 | 1019.2 |
| 20260903154054 | 26 | 153 | 3.2 | 12.9 | 0.00 | 0.00 | 0.00 | 50 | 1019.3 |
| 20260903153553 | 26 | 173 | 6.4 | 12.9 | 0.00 | 0.00 | 0.00 | 50 | 1019.4 |
| 20260903153106 | 26 | 161 | 6.4 | 12.9 | 0.00 | 0.00 | 0.00 | 49 | 1019.4 |
| 20260903152556 | 26 | 206 | 6.4 | 12.9 | 0.00 | 0.00 | 0.00 | 50 | 1019.3 |
| 20260903152056 | 26 | 184 | 4.8 | 9.7 | 0.00 | 0.00 | 0.00 | 51 | 1019.4 |
| 20260903151553 | 26 | 225 | 3.2 | 11.3 | 0.00 | 0.00 | 0.00 | 50 | 1019.4 |
| 20260903151052 | 26 | 210 | 4.8 | 12.9 | 0.00 | 0.00 | 0.00 | 50 | 1019.3 |
| 20260903150552 | 26 | 261 | 6.4 | 12.9 | 0.00 | 0.00 | 0.00 | 50 | 1019.3 |
| 20260903150051 | 26 | 248 | 4.8 | 14.5 | 0.00 | 0.00 | 0.00 | 50 | 1019.4 |
| 20260903145549 | 26 | 196 | 6.4 | 14.5 | 0.00 | 0.00 | 0.00 | 51 | 1019.4 |
| 20260903145048 | 26 | 218 | 6.4 | 11.3 | 0.00 | 0.00 | 0.00 | 51 | 1019.3 |
| 20260903144548 | 25 | 249 | 1.6 | 12.9 | 0.00 | 0.00 | 0.00 | 52 | 1019.4 |
| 20260903144049 | 25 | 189 | 1.6 | 12.9 | 0.00 | 0.00 | 0.00 | 52 | 1019.4 |
| 20260903143545 | 25 | 256 | 4.8 | 14.5 | 0.00 | 0.00 | 0.00 | 52 | 1019.3 |
| 20260903143048 | 25 | 248 | 1.6 | 14.5 | 0.00 | 0.00 | 0.00 | 52 | 1019.4 |
| 20260903142547 | 25 | 215 | 3.2 | 12.9 | 0.00 | 0.00 | 0.00 | 52 | 1019.4 |
| 20260903142043 | 25 | 157 | 4.8 | 12.9 | 0.00 | 0.00 | 0.00 | 52 | 1019.4 |
| 20260903141543 | 25 | 190 | 4.8 | 11.3 | 0.00 | 0.00 | 0.00 | 53 | 1019.4 |
| 20260903141045 | 25 | 157 | 1.6 | 11.3 | 0.00 | 0.00 | 0.00 | 53 | 1019.4 |
| 20260903140540 | 24 | 142 | 3.2 | 6.4 | 0.00 | 0.00 | 0.00 | 53 | 1019.5 |
| 20260903140044 | 24 | 155 | 1.6 | 9.7 | 0.00 | 0.00 | 0.00 | 54 | 1019.5 |
| 20260903135538 | 24 | 136 | 3.2 | 9.7 | 0.00 | 0.00 | 0.00 | 55 | 1019.5 |
| 20260903135042 | 23 | 159 | 1.6 | 6.4 | 0.00 | 0.00 | 0.00 | 56 | 1019.4 |
| 20260903134537 | 23 | 188 | 0.0 | 6.4 | 0.00 | 0.00 | 0.00 | 56 | 1019.3 |
| 20260903134036 | 23 | 176 | 1.6 | 6.4 | 0.00 | 0.00 | 0.00 | 56 | 1019.3 |
| 20260903133538 | 23 | 199 | 1.6 | 6.4 | 0.00 | 0.00 | 0.00 | 56 | 1019.3 |
| 20260903133037 | 23 | 119 | 0.0 | 8.0 | 0.00 | 0.00 | 0.00 | 56 | 1019.2 |
| 20260903132535 | 23 | 119 | 1.6 | 8.0 | 0.00 | 0.00 | 0.00 | 57 | 1019.2 |
| 20260903132034 | 23 | 128 | 0.0 | 11.3 | 0.00 | 0.00 | 0.00 | 56 | 1019.2 |
| 20260903131533 | 23 | 138 | 1.6 | 11.3 | 0.00 | 0.00 | 0.00 | 56 | 1019.1 |
| 20260903131034 | 23 | 130 | 1.6 | 9.7 | 0.00 | 0.00 | 0.00 | 57 | 1019.1 |
| 20260903130529 | 22 | 142 | 3.2 | 8.0 | 0.00 | 0.00 | 0.00 | 57 | 1019.1 |
| 20260903130029 | 22 | 150 | 3.2 | 8.0 | 0.00 | 0.00 | 0.00 | 57 | 1019.1 |
| 20260903125528 | 22 | 144 | 3.2 | 11.3 | 0.00 | 0.00 | 0.00 | 57 | 1019.0 |
| 20260903125028 | 23 | 123 | 3.2 | 11.3 | 0.00 | 0.00 | 0.00 | 57 | 1018.9 |
| 20260903124530 | 23 | 153 | 4.8 | 9.7 | 0.00 | 0.00 | 0.00 | 57 | 1018.9 |
| 20260903124027 | 22 | 150 | 4.8 | 9.7 | 0.00 | 0.00 | 0.00 | 57 | 1018.9 |
| 20260903123525 | 22 | 155 | 4.8 | 11.3 | 0.00 | 0.00 | 0.00 | 57 | 1018.8 |
| 20260903123030 | 22 | 162 | 4.8 | 11.3 | 0.00 | 0.00 | 0.00 | 57 | 1018.8 |
| 20260903122524 | 22 | 140 | 4.8 | 9.7 | 0.00 | 0.00 | 0.00 | 58 | 1018.8 |
| 20260903122024 | 22 | 172 | 1.6 | 8.0 | 0.00 | 0.00 | 0.00 | 58 | 1018.7 |
| 20260903121525 | 22 | 169 | 3.2 | 12.9 | 0.00 | 0.00 | 0.00 | 58 | 1018.7 |
| 20260903121021 | 23 | 161 | 4.8 | 14.5 | 0.00 | 0.00 | 0.00 | 57 | 1018.7 |
| 20260903120520 | 23 | 155 | 6.4 | 14.5 | 0.00 | 0.00 | 0.00 | 56 | 1018.7 |
| 20260903120019 | 23 | 202 | 6.4 | 12.9 | 0.00 | 0.00 | 0.00 | 56 | 1018.5 |
| 20260903115517 | 23 | 205 | 4.8 | 16.1 | 0.00 | 0.00 | 0.00 | 56 | 1018.4 |
| 20260903115016 | 23 | 201 | 9.7 | 16.1 | 0.00 | 0.00 | 0.00 | 55 | 1018.3 |
| 20260903114515 | 23 | 192 | 6.4 | 16.1 | 0.00 | 0.00 | 0.00 | 56 | 1018.2 |
| 20260903114013 | 23 | 194 | 8.0 | 16.1 | 0.00 | 0.00 | 0.00 | 56 | 1018.1 |
| 20260903113513 | 23 | 198 | 6.4 | 11.3 | 0.00 | 0.00 | 0.00 | 55 | 1018.0 |
| 20260903113012 | 23 | 198 | 6.4 | 9.7 | 0.00 | 0.00 | 0.00 | 55 | 1018.1 |
| 20260903112513 | 23 | 142 | 0.0 | 4.8 | 0.00 | 0.00 | 0.00 | 55 | 1018.0 |
| 20260903112012 | 23 | 129 | 0.0 | 6.4 | 0.00 | 0.00 | 0.00 | 55 | 1017.9 |
| 20260903111514 | 24 | 129 | 1.6 | 9.7 | 0.00 | 0.00 | 0.00 | 55 | 1017.9 |
| 20260903111011 | 24 | 216 | 4.8 | 9.7 | 0.00 | 0.00 | 0.00 | 54 | 1017.8 |
| 20260903110511 | 24 | 219 | 4.8 | 8.0 | 0.00 | 0.00 | 0.00 | 55 | 1017.8 |
| 20260903110010 | 24 | 296 | 1.6 | 8.0 | 0.00 | 0.00 | 0.00 | 54 | 1017.9 |
| 20260903105510 | 24 | 312 | 3.2 | 8.0 | 0.00 | 0.00 | 0.00 | 54 | 1018.0 |
| 20260903105010 | 24 | 321 | 0.0 | 8.0 | 0.00 | 0.00 | 0.00 | 53 | 1017.9 |
| 20260903104510 | 24 | 215 | 1.6 | 8.0 | 0.00 | 0.00 | 0.00 | 53 | 1018.0 |
| 20260903104011 | 24 | 211 | 0.0 | 6.4 | 0.00 | 0.00 | 0.00 | 52 | 1017.9 |
| 20260903103509 | 25 | 173 | 0.0 | 6.4 | 0.00 | 0.00 | 0.00 | 52 | 1018.1 |
| 20260903103007 | 25 | 173 | 0.0 | 3.2 | 0.00 | 0.00 | 0.00 | 51 | 1018.1 |
| 20260903102508 | 25 | 173 | 0.0 | 3.2 | 0.00 | 0.00 | 0.00 | 51 | 1018.2 |
| 20260903102009 | 25 | 173 | 0.0 | 6.4 | 0.00 | 0.00 | 0.00 | 51 | 1018.1 |
| 20260903101507 | 25 | 225 | 0.0 | 3.2 | 0.00 | 0.00 | 0.00 | 51 | 1018.2 |
| 20260903101106 | 25 | 241 | 0.0 | 3.2 | 0.00 | 0.00 | 0.00 | 51 | 1018.2 |
| 20260903100506 | 25 | 241 | 1.6 | 8.0 | 0.00 | 0.00 | 0.00 | 50 | 1018.2 |
| 20260903100005 | 25 | 241 | 0.0 | 11.3 | 0.00 | 0.00 | 0.00 | 50 | 1018.1 |
| 20260903095504 | 25 | 241 | 6.4 | 11.3 | 0.00 | 0.00 | 0.00 | 49 | 1018.2 |
| 20260903095004 | 25 | 281 | 4.8 | 9.7 | 0.00 | 0.00 | 0.00 | 49 | 1018.1 |
| 20260903094511 | 25 | 246 | 1.6 | 11.3 | 0.00 | 0.00 | 0.00 | 48 | 1018.2 |
| 20260903094002 | 25 | 246 | 1.6 | 11.3 | 0.00 | 0.00 | 0.00 | 47 | 1018.2 |
| 20260903093503 | 25 | 304 | 0.0 | 6.4 | 0.00 | 0.00 | 0.00 | 47 | 1018.3 |
| 20260903093004 | 25 | 304 | 1.6 | 6.4 | 0.00 | 0.00 | 0.00 | 47 | 1018.2 |
| 20260903092503 | 25 | 165 | 0.0 | 9.7 | 0.00 | 0.00 | 0.00 | 47 | 1018.2 |
| 20260903092001 | 25 | 165 | 1.6 | 9.7 | 0.00 | 0.00 | 0.00 | 46 | 1018.2 |
| 20260903091601 | 25 | 146 | 0.0 | 11.3 | 0.00 | 0.00 | 0.00 | 46 | 1018.1 |
| 20260903091100 | 25 | 146 | 3.2 | 11.3 | 0.00 | 0.00 | 0.00 | 46 | 1018.1 |
| 20260903090600 | 25 | 126 | 0.0 | 6.4 | 0.00 | 0.00 | 0.00 | 46 | 1018.1 |
| 20260903090105 | 25 | 141 | 0.0 | 8.0 | 0.00 | 0.00 | 0.00 | 45 | 1018.1 |
| 20260903085559 | 25 | 155 | 1.6 | 8.0 | 0.00 | 0.00 | 0.00 | 45 | 1018.0 |
| 20260903085058 | 25 | 160 | 1.6 | 8.0 | 0.00 | 0.00 | 0.00 | 44 | 1017.9 |
| 20260903084558 | 25 | 156 | 1.6 | 8.0 | 0.00 | 0.00 | 0.00 | 44 | 1017.9 |
| 20260903084058 | 25 | 201 | 0.0 | 8.0 | 0.00 | 0.00 | 0.00 | 43 | 1017.8 |
| 20260903083557 | 25 | 199 | 1.6 | 8.0 | 0.00 | 0.00 | 0.00 | 44 | 1017.8 |
| 20260903083101 | 26 | 193 | 1.6 | 8.0 | 0.00 | 0.00 | 0.00 | 42 | 1017.8 |
| 20260903082554 | 26 | 244 | 0.0 | 6.4 | 0.00 | 0.00 | 0.00 | 42 | 1017.9 |
| 20260903082053 | 26 | 252 | 1.6 | 6.4 | 0.00 | 0.00 | 0.00 | 41 | 1017.9 |
| 20260903081558 | 26 | 263 | 0.0 | 9.7 | 0.00 | 0.00 | 0.00 | 40 | 1017.8 |
| 20260903081053 | 26 | 295 | 3.2 | 11.3 | 0.00 | 0.00 | 0.00 | 40 | 1017.8 |
| 20260903080554 | 26 | 236 | 3.2 | 11.3 | 0.00 | 0.00 | 0.00 | 38 | 1017.8 |
| 20260903080051 | 26 | 269 | 6.4 | 12.9 | 0.00 | 0.00 | 0.00 | 38 | 1017.8 |
| 20260903075551 | 27 | 263 | 6.4 | 11.3 | 0.00 | 0.00 | 0.00 | 37 | 1017.8 |
| 20260903075051 | 27 | 212 | 0.0 | 8.0 | 0.00 | 0.00 | 0.00 | 37 | 1017.8 |
| 20260903074602 | 27 | 249 | 1.6 | 14.5 | 0.00 | 0.00 | 0.00 | 37 | 1017.9 |
| 20260903074049 | 27 | 256 | 6.4 | 14.5 | 0.00 | 0.00 | 0.00 | 37 | 1017.8 |
| 20260903073549 | 26 | 200 | 0.0 | 6.4 | 0.00 | 0.00 | 0.00 | 39 | 1017.7 |
| 20260903073102 | 27 | 202 | 3.2 | 6.4 | 0.00 | 0.00 | 0.00 | 39 | 1017.8 |
| 20260903072547 | 27 | 330 | 1.6 | 6.4 | 0.00 | 0.00 | 0.00 | 37 | 1017.5 |
| 20260903072047 | 27 | 355 | 0.0 | 6.4 | 0.00 | 0.00 | 0.00 | 37 | 1017.5 |
| 20260903071604 | 26 | 320 | 1.6 | 6.4 | 0.00 | 0.00 | 0.00 | 38 | 1017.5 |
| 20260903071050 | 26 | 290 | 0.0 | 3.2 | 0.00 | 0.00 | 0.00 | 38 | 1017.5 |
| 20260903070545 | 27 | 290 | 0.0 | 0.0 | 0.00 | 0.00 | 0.00 | 37 | 1017.5 |
| 20260903070044 | 27 | 290 | 0.0 | 0.0 | 0.00 | 0.00 | 0.00 | 36 | 1017.5 |
| 20260903065543 | 27 | 290 | 0.0 | 3.2 | 0.00 | 0.00 | 0.00 | 35 | 1017.5 |
| 20260903065041 | 27 | 290 | 0.0 | 3.2 | 0.00 | 0.00 | 0.00 | 34 | 1017.5 |
| 20260903064541 | 28 | 276 | 0.0 | 6.4 | 0.00 | 0.00 | 0.00 | 34 | 1017.5 |
| 20260903064041 | 28 | 276 | 0.0 | 6.4 | 0.00 | 0.00 | 0.00 | 33 | 1017.5 |
| 20260903063540 | 28 | 300 | 1.6 | 6.4 | 0.00 | 0.00 | 0.00 | 33 | 1017.5 |
| 20260903063046 | 28 | 325 | 0.0 | 3.2 | 0.00 | 0.00 | 0.00 | 33 | 1017.5 |
| 20260903062540 | 28 | 325 | 0.0 | 3.2 | 0.00 | 0.00 | 0.00 | 34 | 1017.5 |
| 20260903062042 | 28 | 315 | 0.0 | 3.2 | 0.00 | 0.00 | 0.00 | 34 | 1017.6 |
| 20260903061539 | 28 | 262 | 0.0 | 6.4 | 0.00 | 0.00 | 0.00 | 34 | 1017.5 |
| 20260903061036 | 28 | 262 | 1.6 | 6.4 | 0.00 | 0.00 | 0.00 | 34 | 1017.6 |
| 20260903060533 | 28 | 256 | 0.0 | 6.4 | 0.00 | 0.00 | 0.00 | 34 | 1017.5 |
| 20260903060106 | 28 | 256 | 0.0 | 6.4 | 0.00 | 0.00 | 0.00 | 34 | 1017.6 |
| 20260903055533 | 28 | 234 | 1.6 | 6.4 | 0.00 | 0.00 | 0.00 | 33 | 1017.7 |
| 20260903055031 | 27 | 250 | 0.0 | 3.2 | 0.00 | 0.00 | 0.00 | 35 | 1017.7 |
| 20260903054535 | 27 | 250 | 0.0 | 0.0 | 0.00 | 0.00 | 0.00 | 34 | 1017.7 |
| 20260903054034 | 28 | 250 | 0.0 | 1.6 | 0.00 | 0.00 | 0.00 | 34 | 1017.8 |
| 20260903053531 | 28 | 250 | 0.0 | 6.4 | 0.00 | 0.00 | 0.00 | 34 | 1017.8 |
| 20260903053032 | 28 | 250 | 0.0 | 4.8 | 0.00 | 0.00 | 0.00 | 33 | 1017.8 |
| 20260903052531 | 28 | 256 | 0.0 | 8.0 | 0.00 | 0.00 | 0.00 | 33 | 1017.7 |
| 20260903052031 | 28 | 231 | 0.0 | 8.0 | 0.00 | 0.00 | 0.00 | 33 | 1017.7 |
| 20260903051531 | 28 | 238 | 0.0 | 6.4 | 0.00 | 0.00 | 0.00 | 33 | 1017.7 |
| 20260903051031 | 28 | 232 | 0.0 | 6.4 | 0.00 | 0.00 | 0.00 | 33 | 1017.7 |
| 20260903050530 | 28 | 225 | 0.0 | 8.0 | 0.00 | 0.00 | 0.00 | 34 | 1017.7 |
| 20260903050033 | 28 | 225 | 1.6 | 8.0 | 0.00 | 0.00 | 0.00 | 33 | 1017.7 |
| 20260903045531 | 28 | 214 | 0.0 | 3.2 | 0.00 | 0.00 | 0.00 | 34 | 1017.7 |
| 20260903045030 | 28 | 214 | 1.6 | 3.2 | 0.00 | 0.00 | 0.00 | 34 | 1017.7 |
| 20260903044530 | 29 | 214 | 0.0 | 3.2 | 0.00 | 0.00 | 0.00 | 33 | 1017.8 |